Regional Weather Roundup
Issued by NWS

Current Version | Previous Version | Text Only | Print | Product List | Glossary On
Versions: 1 2 3 4 5 6 7 8 9 10 11 12 13 14 15 16 17 18 19 20 21 22 23 24 25 26 27 28 29 30 31 32 33 34 35 36 37 38 39 40 41 42 43 44 45 46 47 48 49 50
000
ASUS42 KTBW 051010
RWRFL
FLORIDA REGIONAL WEATHER ROUNDUP
NATIONAL WEATHER SERVICE TAMPA BAY RUSKIN FL
500 AM EST THU MAR 05 2015

NOTE: "FAIR" INDICATES FEW OR NO CLOUDS BELOW 12,000 FEET WITH NO
SIGNIFICANT WEATHER AND/OR OBSTRUCTIONS TO VISIBILITY.


FLZ001>010-012>015-112-114-115-051100-
PANHANDLE FLORIDA

CITY           SKY/WX    TMP DP  RH WIND       PRES   REMARKS
PENSACOLA      CLOUDY    69  68  96 S14       29.93S FOG
PENSACOLA NAS  FOG       67  67 100 S12       29.92F VSB 1/4
MILTON NAS     CLOUDY    70  69  97 S16       29.94R FOG
CRESTVIEW      CLOUDY    71  69  93 S10       29.94F
DUKE FIELD     CLOUDY    70  68  94 S15G22    29.93F
VALPARAISO     FOG       67  66  98 S12       29.93F VSB 1/4
MARY ESTHER    FOG       67  62  84 S12       29.92F VSB 3/4
TRI COUNTY     CLOUDY    69  67  93 S8        29.96F
PANAMA CITY    FOG       70  68  94 S10       29.98S VSB 1/2
TYNDALL AFB    FOG       64  64 100 S7        30.00S VSB 1
APALACHICOLA   CLOUDY    69  66  90 SW5       30.00S

STATION/POSITION SKY/WX   TEMP    WIND        PRES    WAVE   SWELL
                          AIR SEA DIR/SP/G            HT/PER HT/PER
                          (F)     (DEG/KT/KT) (MB)    (FT/S) (FT/S)
30.1N   87.6W              68 65  170/ 14/ 16 1012.6F   4/ 8   2/ 8
29.2N   88.2W              73 71  190/ 10/ 12 1013.7F   5/ 7   5/ 7
28.7N   86.0W              72 71  210/  8/ 10 1015.7R   4/ 7   3/ 7
PANAMA CITY BEAC                              1015.2S
CAPE SAN BLAS    NOT AVBL
TOWER C                    67     190/ 14/ 14 1016.0R
28.5N   84.5W              70 68  190/  8/ 10 1016.2R   3/ 6   3/ 6

$$
FLZ011-016>038-118-127-128-134-139-239-051100-
NORTH FLORIDA

CITY           SKY/WX    TMP DP  RH WIND       PRES   REMARKS
MARIANNA       MOCLDY    69  69 100 S8        29.98S
TALLAHASSEE    MOCLDY    69  66  90 S5        30.01S
CROSS CITY       N/A     61  60  97 S3        30.03R
LAKE CITY      FAIR      61  61 100 CALM      30.04R
GAINESVILLE    CLOUDY    62  62 100 CALM      30.04S
MAYPORT NAS    CLEAR     63  61  93 S3        30.03S
JACKSONVILLE   PTCLDY    62  62 100 S3        30.03R
JAX NAS        PTCLDY    69  63  81 SW5       30.04S
JAX CRAIG      CLEAR     64  62  93 CALM      30.03S
JAX CECIL      FOG       57  57 100 CALM      30.04S VSB 1
FERNANDINA BEA FAIR      68  64  88 S3        30.03R
ST AUGUSTINE   CLEAR     65  64  97 S6        30.05S

STATION/POSITION SKY/WX   TEMP    WIND        PRES    WAVE   SWELL
                          AIR SEA DIR/SP/G            HT/PER HT/PER
                          (F)     (DEG/KT/KT) (MB)    (FT/S) (FT/S)
SHELL POINT                65     200/  4/  5   N/A
KEATON BEACH               66     180/  8/  9 1017.0R
CEDAR KEY                  67     200/  8/  9 1017.2F
FERNANDINA                                    1016.3R
30.7N   81.3W                 55                N/A     3/ 6
MAYPORT                                       1017.0R
31.4N   80.9W              57 54  210/  6/  8 1016.7F   4/ 6   3/ 6
ST AUGUSTINE               59     180/  9/ 10 1017.9R

$$
FLZ040-043>046-052-053-057-058-063-144-051100-
INTERIOR CENTRAL FLORIDA

CITY           SKY/WX    TMP DP  RH WIND       PRES   REMARKS
OCALA          CLEAR     57  55  94 CALM      30.05S
THE VILLAGES   FOG       64  64 100 CALM      29.96R VSB 3/4
LEESBURG       MOCLDY    67  65  93 S5        30.06R
SANFORD        MOCLDY    66  64  93 CALM      30.06R
ORLANDO EXEC   CLOUDY    69  67  93 S8        30.06R
ORLANDO INTL   CLOUDY    69  68  96 S6        30.06R
WINTER HAVEN   MOCLDY    68  66  93 S5        30.07R
LAKELAND       PTCLDY    63  63 100 CALM      30.05S FOG
BARTOW         FOG       61 N/A N/A CALM      30.06S VSB 1
OKEECHOBEE     CLEAR     70  68  94 SE8       30.06S

$$
FLZ041-047-054-059-064-141-147-051100-
EAST CENTRAL FLORIDA

CITY           SKY/WX    TMP DP  RH WIND       PRES   REMARKS
DAYTONA BEACH  PTCLDY    65  64  97 CALM      30.06S
DELAND           N/A    N/A N/A N/A CALM      30.06S
JFK SPACE CTR  FOG       64  63  94 S2        30.05R VSB 3/4
CAPE CANAVERAL CLEAR     68  67  96 S6        30.05
PATRICK AFB    CLEAR     68  68 100 S6        30.05R
MELBOURNE      CLEAR     68  67  96 S6        30.06R
VERO BEACH     CLEAR     72  66  81 S10       30.06R
FT PIERCE      CLEAR     71  68  90 S7        30.06R
STUART         CLEAR     70  66  88 S7        30.07F

STATION/POSITION SKY/WX   TEMP    WIND        PRES    WAVE   SWELL
                          AIR SEA DIR/SP/G            HT/PER HT/PER
                          (F)     (DEG/KT/KT) (MB)    (FT/S) (FT/S)
28.5N   80.2W              73 72  170/ 12/ 14 1017.7F
28.9N   78.5W              74 74  180/ 16/ 17 1018.9R   4/11   3/11
TRIDENT PIER                                  1018.2R
28.4N   80.5W                 67                N/A     3/ 5   2/11
27.6N   80.2W                 74                N/A     4/10   2/12

$$
FLZ050-056-061-142-242-148-248-149-249-151-251-155-255-
160-260-051100-
WEST CENTRAL FLORIDA

CITY           SKY/WX    TMP DP  RH WIND       PRES   REMARKS
CRYSTAL RIVER  FAIR      59  57  94 CALM      30.04S
INVERNESS      FOG       59  57  94 CALM      30.05S VSB 3/4
BROOKSVILLE    CLEAR     59  58  96 CALM      30.05S FOG
ZEPHYRHILLS    FAIR      64  64 100 SE7       30.06R
CLEARWATER     CLEAR     66  64  93 SE5       30.04R
TAMPA INTL     PTCLDY    68  64  87 CALM      30.05R
TAMPA EXEC     CLEAR     68  63  83 CALM      30.05R
PLANT CITY     CLEAR    N/A N/A N/A SE6       30.07R
MACDILL AFB    CLEAR     67  67 100 SE6       30.04R
PETER O KNIGHT CLEAR     70  68  94 SE6       30.05R
ST PETERSBURG  CLEAR     67  64  90 S5        30.02S
SARASOTA       CLEAR     63  63 100 E3        30.02S
VENICE         FAIR      66  66 100 E5        30.04S

STATION/POSITION SKY/WX   TEMP    WIND        PRES    WAVE   SWELL
                          AIR SEA DIR/SP/G            HT/PER HT/PER
                          (F)     (DEG/KT/KT) (MB)    (FT/S) (FT/S)
CEDAR KEY                  67     200/  8/  9 1017.2F
28.5N   84.5W              70 68  190/  8/ 10 1016.2R   3/ 6   3/ 6
27.3N   84.3W                 71                N/A     3/ 6
CLEARWATER BEACH                              1017.1R
MIDDLE TAMPA BAY                              1017.2S
VENICE                     68 69  110/  5/  6 1016.5R

$$
FLZ066-069-070-075>078-162-262-165-265-051100-
SOUTHWEST FLORIDA AND KEYS

CITY           SKY/WX    TMP DP  RH WIND       PRES   REMARKS
PUNTA GORDA    CLEAR     68  67  96 SE10      30.05R
FT MYERS       CLOUDY    69  68  96 SE8       30.03R
SOUTHWEST INTL CLOUDY    68  67  96 SE10      30.04S FOG
NAPLES         CLEAR     69  68  96 SE6       30.03S
MARCO ISLAND   SUNNY     66  64  94 E5        30.03S
IMMOKALEE      CLOUDY   N/A N/A N/A CALM      30.05S VSB 1/4
MARATHON       PTCLDY    76  72  87 SE8       30.04R
KEY WEST NAS   PTCLDY    75  71  87 SE14      30.02F
KEY WEST INTL  CLEAR     76  73  91 SE16      30.03S

STATION/POSITION SKY/WX   TEMP    WIND        PRES    WAVE   SWELL
                          AIR SEA DIR/SP/G            HT/PER HT/PER
                          (F)     (DEG/KT/KT) (MB)    (FT/S) (FT/S)
VENICE                     68 69  110/  5/  6 1016.5R
NAPLES                                        1016.7S
26.0N   85.6W              76 77  160/ 17/ 19 1014.9R   5/ 6   2/14
DRY TORTUGAS               75     140/ 15/ 17 1015.9F
NW FL BAY                  77     150/ 16/ 18 1017.4F
SAND KEY                   76     140/ 17/ 19 1016.5F
SOMBRERO KEY               76     140/ 17/ 19 1017.8R
LONG KEY                   76 77  140/ 18/ 20 1017.6F
MOLASSES REEF              76 75  140/ 20/ 23 1017.2F

$$
FLZ067-068-071>074-168-172>174-051100-
SOUTHEAST FLORIDA

CITY           SKY/WX    TMP DP  RH WIND       PRES   REMARKS
W PALM BEACH   PTCLDY    75  68  78 S10       30.06S
FT LAUDER-EXEC PTCLDY    75  69  81 SE8       30.07R
FT LAUDERDALE  PTCLDY    74  70  87 SE15      30.06R
POMPANO BEACH  PTCLDY    75  68  78 SE13G18   30.07R
PEMBROKE PINES PTCLDY    74  68  81 SE6       30.07R
OPA LOCKA      MOCLDY    74  68  81 SE9       30.06S
MIAMI          MOCLDY    75  68  78 SE12      30.06S
WEST KENDALL   PTCLDY    73  68  84 SE12      30.05S
HOMESTEAD      CLEAR     75  69  81 SE10G17   30.05R

STATION/POSITION SKY/WX   TEMP    WIND        PRES    WAVE   SWELL
                          AIR SEA DIR/SP/G            HT/PER HT/PER
                          (F)     (DEG/KT/KT) (MB)    (FT/S) (FT/S)
PORT EVERGLADES            76     140/ 11/ 14 1018.0
VIRGINIA KEY                                  1017.4R
LAKE WORTH                                    1017.9R
SETTLEMENT POINT           75     140/  9/ 11 1019.3R

$$



USA.gov is the U.S. government's official web portal to all federal, state and local government web resources and services.